Theta_e
338 339 339 341 339 338 331 324 318 314 312 310 310 312 314 317 319 322 325 326 327 323 322 321 322 320 320 320 319 317 317 319 318 319 319 318 317 318 319 319 319 320 320
338 338 339 338 339 337 332 324 317 314 312 310 308 311 314 317 318 319 321 321 323 321 319 318 319 319 318 318 316 315 314 316 315 316 316 316 316 316 316 316 317 317 317
337 338 337 337 336 337 331 322 316 313 311 308 308 310 313 315 316 316 317 317 316 320 318 316 317 314 315 315 313 311 311 313 313 313 313 313 313 313 314 315 315 315 316
336 337 336 335 337 336 327 319 315 311 310 308 307 307 311 313 314 313 313 313 313 314 312 313 311 312 310 309 309 309 309 310 309 309 310 311 312 312 313 313 313 314 314
337 335 335 337 337 333 323 318 313 312 309 307 306 306 308 310 311 310 310 310 311 311 310 308 308 307 306 307 307 308 307 307 306 307 308 308 310 311 311 312 313 313 314
338 336 334 334 335 330 322 317 313 310 309 307 302 303 305 308 310 309 308 307 308 307 306 305 306 304 303 303 303 304 305 305 305 306 307 308 309 310 311 312 313 313 314
338 336 336 333 333 328 323 317 313 307 305 306 304 303 303 304 306 308 307 306 305 304 303 302 303 302 301 297 299 301 304 303 304 306 307 308 309 310 312 312 313 313 314
338 336 335 333 332 327 325 318 311 307 307 306 305 304 300 300 302 305 305 304 303 302 301 301 301 300 300 301 301 299 300 302 304 306 307 308 309 310 312 312 312 312 313
338 336 335 334 331 327 324 318 311 308 304 303 306 305 300 300 300 301 302 302 301 301 301 300 299 298 298 300 299 300 299 299 301 304 306 307 308 309 310 311 312 312 312
334 335 333 333 329 325 322 317 312 310 309 303 302 301 301 304 300 296 298 299 300 299 300 299 298 297 298 298 296 296 296 297 300 303 305 307 308 309 310 311 311 312 311
331 332 332 331 328 324 323 319 314 309 308 308 303 299 297 298 299 299 297 295 297 298 299 298 298 297 296 297 296 296 294 296 299 301 303 305 307 308 309 309 310 310 310
328 329 328 329 328 325 323 320 316 311 308 308 303 299 298 296 295 295 296 297 296 296 297 297 297 296 296 295 294 293 293 294 297 299 302 305 305 306 307 307 307 307 307
324 325 325 325 325 326 323 319 315 311 309 304 303 300 300 299 297 297 298 292 294 294 294 295 295 295 295 295 294 291 292 293 295 298 301 303 302 302 302 303 304 304 305
325 327 324 324 323 323 322 319 315 312 306 303 302 299 296 295 295 294 293 290 287 290 290 290 293 292 293 292 293 290 293 292 294 296 298 298 297 297 298 299 300 301 302
324 325 325 322 321 320 319 317 315 312 310 308 305 299 295 295 295 293 294 291 292 285 286 289 289 292 292 293 292 292 292 293 293 294 295 295 294 295 296 296 297 298 299
321 321 321 320 318 315 314 313 310 309 305 301 298 295 293 293 291 290 290 289 288 287 284 288 286 288 289 289 290 290 291 292 292 293 293 293 293 294 295 295 296 297 298
319 318 317 315 313 311 309 307 304 302 298 294 293 292 289 290 289 288 289 288 286 287 284 285 286 286 286 288 288 290 292 291 291 292 293 293 293 293 294 295 295 296 297
314 313 313 310 309 307 305 303 298 296 294 291 292 290 288 290 288 288 287 285 285 284 284 282 285 285 285 287 287 287 288 289 290 291 292 292 292 293 293 294 294 294 295
310 309 309 306 304 302 300 299 296 293 292 291 290 290 289 288 286 286 285 284 284 286 285 284 285 286 286 286 286 287 288 289 289 290 291 291 291 292 292 293 293 294 293
305 305 303 300 298 297 295 293 292 291 291 290 290 288 288 287 286 285 286 285 286 286 285 284 285 285 286 287 286 285 285 288 287 288 289 290 290 290 291 292 292 291 291
296 296 295 293 293 292 292 291 290 289 288 287 287 287 286 287 289 287 287 287 286 284 285 286 285 285 286 285 285 286 285 286 286 287 287 288 288 288 289 290 290 290 290
293 293 293 292 292 293 294 293 291 289 288 286 285 285 285 287 287 288 290 290 289 287 286 286 286 284 284 285 286 285 284 283 281 287 286 285 288 286 288 288 290 290 290
292 292 293 294 293 294 295 294 291 288 286 285 285 284 285 286 286 285 286 287 288 288 288 287 284 285 285 286 285 284 283 282 282 285 285 282 286 285 288 288 290 290 290
291 291 290 291 291 293 293 291 288 284 284 284 284 284 284 284 285 285 285 286 286 287 287 287 287 286 286 286 286 285 284 284 284 285 286 281 285 284 287 288 289 290 290
286 285 286 286 285 285 289 288 285 283 283 283 284 284 284 284 284 286 286 285 285 286 287 286 286 286 287 287 286 285 282 281 280 282 285 282 283 283 285 286 287 288 289
285 287 285 285 288 285 288 286 285 283 283 283 284 284 283 284 285 286 286 285 282 283 283 284 284 284 284 284 284 283 283 280 279 278 284 281 282 281 279 284 285 286 286
Wind_Speed
8 8 8 7 7 6 6 6 5 5 5 5 4 5 5 5 5 3 5 7 8 9 8 8 8 8 8 9 8 7 7 8 8 8 9 9 9 9 10 10 10 10 10
8 9 8 7 6 7 6 6 6 5 4 4 4 5 5 5 5 5 5 6 7 8 8 7 7 7 7 7 6 6 5 6 6 7 8 8 8 9 9 9 9 9 9
11 10 9 8 6 8 8 6 6 5 4 3 5 5 5 6 5 6 5 5 7 6 8 7 7 6 5 5 4 3 3 4 5 5 6 6 6 6 8 9 9 9 9
14 12 9 8 10 8 8 8 7 6 5 5 4 4 5 5 6 7 5 5 5 7 6 6 6 6 5 4 3 2 2 2 2 3 4 5 6 6 7 8 8 9 9
16 13 11 11 13 9 9 8 8 7 6 5 4 4 4 6 7 5 7 7 6 5 5 7 7 6 4 4 4 3 2 1 2 2 3 4 5 6 7 8 8 9 10
16 14 11 12 12 10 9 9 10 7 6 6 5 5 4 5 5 6 7 6 7 6 6 6 6 5 4 3 3 3 3 3 3 3 5 6 6 8 9 10 10 10 11
16 16 11 13 13 13 12 13 10 11 7 7 6 4 4 5 7 7 7 7 8 8 7 6 4 4 4 2 2 2 3 3 3 4 6 7 8 10 11 12 13 13 14
18 16 16 14 15 12 14 14 13 9 7 10 6 5 5 5 7 9 8 8 9 7 7 7 6 5 4 2 2 1 2 3 5 6 7 9 10 12 13 14 15 16 17
18 18 18 15 16 14 13 15 15 15 9 9 11 4 4 6 7 7 10 8 9 7 7 7 7 5 4 3 4 3 2 3 6 8 9 11 12 14 16 17 17 18 17
15 15 17 17 15 12 14 15 13 14 11 10 7 8 4 1 5 5 6 9 9 10 10 7 7 6 5 4 1 3 1 4 7 9 11 14 16 17 18 19 19 19 18
13 15 16 16 15 13 15 15 14 15 12 10 8 5 7 5 4 3 4 6 8 8 8 8 7 6 6 5 4 3 1 5 7 12 14 15 17 18 18 19 19 19 19
7 11 13 15 16 14 15 14 14 15 12 10 9 7 7 6 6 4 3 5 7 9 9 7 7 6 6 5 3 2 3 6 10 13 15 17 18 19 19 19 19 19 20
6 9 13 14 12 15 14 13 13 13 13 11 10 7 5 4 2 4 5 2 4 3 5 6 6 6 5 5 5 3 4 8 11 14 17 18 18 18 19 20 20 21 22
10 13 13 13 14 15 15 15 11 11 11 10 14 9 5 4 4 3 4 5 2 5 4 3 3 3 4 4 1 2 7 7 11 15 17 18 18 19 20 20 21 22 22
6 8 11 12 12 12 13 13 10 13 13 12 12 9 6 4 3 2 2 2 3 4 5 5 3 5 4 4 5 6 9 11 13 17 18 19 20 20 21 21 22 22 22
10 10 11 11 11 9 9 10 9 10 9 5 2 3 5 5 5 4 6 5 6 3 3 3 2 2 2 2 6 7 10 11 17 17 18 18 20 21 22 22 22 22 23
8 9 8 9 10 10 9 9 7 7 7 8 7 12 8 4 7 6 6 4 5 2 4 2 2 2 2 4 6 9 9 10 10 16 17 19 20 22 22 22 23 23 23
5 7 6 6 8 9 10 11 10 9 10 9 10 9 10 7 6 7 6 6 6 3 3 2 0 2 5 5 7 10 9 9 11 15 20 21 22 21 22 23 22 21 22
4 4 5 5 5 6 9 9 10 11 13 13 12 10 9 8 9 4 5 5 5 3 3 2 3 5 4 4 5 8 10 11 10 15 20 20 20 20 20 20 21 22 23
2 4 4 6 6 6 7 10 11 12 12 11 11 10 9 9 8 7 5 4 3 3 3 4 6 6 6 6 7 8 8 8 10 10 14 17 17 18 21 22 22 23 24
8 9 9 10 9 9 6 9 11 13 13 12 9 9 7 8 10 7 4 4 4 4 5 5 7 6 7 6 7 7 9 9 10 10 11 9 9 10 11 17 18 21 21
10 10 9 10 10 8 16 17 13 10 11 10 10 7 6 8 4 3 7 8 8 6 7 6 6 8 9 8 7 8 9 10 10 8 9 11 11 12 12 11 20 22 23
9 9 10 11 12 11 18 18 17 9 8 8 8 7 6 4 6 5 4 6 7 9 8 6 10 9 10 9 7 9 10 9 10 10 12 13 12 13 11 12 22 23 24
9 9 11 11 11 10 17 19 19 9 9 8 6 5 5 5 3 1 2 4 5 6 7 5 8 10 9 9 9 8 10 12 12 11 11 12 11 12 12 12 23 25 25
10 10 10 12 12 10 17 16 13 7 7 6 5 4 3 3 2 5 6 2 5 6 4 8 11 12 12 13 13 9 9 9 10 11 10 10 10 11 12 13 12 21 20
10 9 10 9 12 9 10 9 8 5 6 4 4 3 1 2 1 3 4 3 5 7 8 8 8 9 11 10 11 9 7 8 8 8 1 5 8 9 6 8 8 10 11
Wind_Direction
206 208 209 193 195 198 191 187 193 183 183 172 173 177 171 166 168 162 121 93 106 113 111 112 110 105 100 97 87 70 68 68 60 62 51 43 42 42 45 41 36 32 27
207 211 198 201 209 201 196 193 192 197 183 189 181 180 172 169 166 164 145 120 97 120 120 122 120 106 108 111 100 83 76 71 56 56 42 41 39 35 30 26 22 20 17
218 216 199 194 200 205 199 195 187 191 182 187 188 183 187 177 174 172 173 151 139 108 125 129 115 113 97 85 75 58 73 74 57 47 33 29 24 22 15 11 8 7 4
218 215 206 206 206 200 193 190 187 188 194 196 188 183 187 189 185 178 176 171 172 150 122 120 129 117 99 83 59 49 74 67 51 20 11 2 2 356 358 355 354 352 350
214 216 216 204 206 196 195 190 190 193 191 191 195 185 193 194 190 184 185 182 172 182 157 120 116 103 98 75 49 39 41 341 320 323 330 313 321 324 323 330 333 333 332
213 215 215 213 202 199 196 190 189 190 195 182 177 189 192 207 204 202 192 188 184 183 189 178 167 134 102 63 11 338 306 277 282 299 314 314 303 309 309 310 311 311 312
216 215 215 212 202 202 197 194 189 180 175 177 160 181 195 210 214 207 204 202 192 192 190 195 200 195 161 126 23 331 293 273 282 296 301 302 299 300 302 304 303 305 306
218 212 210 209 203 210 198 194 185 185 186 185 194 175 199 194 215 214 207 209 204 195 200 203 202 203 202 201 61 35 338 309 296 298 300 302 299 298 296 299 300 297 296
223 213 215 206 201 203 200 191 191 187 182 195 201 194 180 223 163 186 213 212 212 207 207 200 207 202 201 190 194 153 62 330 305 300 300 299 298 296 295 292 291 291 292
234 224 220 219 209 203 199 198 190 196 180 181 191 226 238 104 199 176 212 213 215 217 209 204 207 203 202 208 102 47 35 314 305 303 305 303 300 296 293 292 291 292 292
218 222 216 213 209 207 208 202 197 201 200 187 183 163 212 216 230 223 170 192 215 223 217 215 208 202 201 202 200 152 292 304 309 306 304 303 301 297 294 292 291 293 295
226 228 225 219 216 215 205 199 202 208 203 205 199 175 176 170 192 181 196 177 204 202 205 208 214 214 205 205 184 97 274 301 309 307 305 304 303 300 300 299 297 294 293
224 223 218 221 219 220 214 203 196 200 203 205 193 191 190 189 148 169 207 128 178 152 201 208 224 213 209 216 196 236 214 294 304 306 305 304 308 306 302 298 294 290 287
237 237 233 224 221 220 221 213 210 206 199 198 198 186 175 165 185 182 168 150 151 182 191 132 179 201 212 214 236 254 270 285 298 306 303 305 305 301 296 292 290 287 286
252 253 231 222 224 227 217 210 217 213 209 208 206 183 167 149 134 77 83 59 115 170 188 175 159 182 189 196 239 279 300 296 292 296 294 298 299 296 292 289 286 283 283
251 237 231 222 219 216 216 212 215 213 198 187 114 127 97 114 98 80 90 63 42 38 72 25 38 86 95 281 284 290 291 297 280 282 288 293 295 291 286 283 280 279 279
271 251 233 220 211 198 198 192 188 179 156 125 111 112 74 36 105 91 77 77 80 55 103 28 21 14 295 271 291 287 282 284 283 282 284 288 290 286 282 280 281 281 281
270 264 233 218 203 193 190 188 161 154 143 130 131 110 114 128 80 108 109 81 90 84 131 177 203 275 242 271 282 296 291 288 284 288 290 293 291 286 284 282 279 278 278
221 211 222 198 188 189 171 164 152 135 130 127 125 128 125 126 116 88 82 116 122 144 157 197 261 237 252 259 269 270 269 271 277 281 284 289 286 286 283 278 277 279 282
153 129 142 121 119 127 130 123 125 123 113 109 111 115 125 130 126 133 159 159 155 153 201 225 242 261 264 257 256 280 276 283 293 300 293 287 288 283 283 284 283 281 281
72 81 94 86 92 103 106 111 114 112 110 106 100 106 108 118 141 157 157 157 156 186 227 249 265 257 256 272 275 294 292 298 303 294 292 289 289 291 284 284 278 275 274
70 82 83 90 88 92 116 114 107 105 108 114 117 108 107 103 109 200 202 200 206 211 235 260 268 275 284 279 289 293 301 302 304 293 296 295 297 291 289 281 276 278 279
81 82 80 87 92 101 108 105 102 94 92 93 100 108 113 134 158 183 185 216 239 259 280 270 267 274 289 300 317 291 288 286 286 285 289 294 292 286 286 276 278 280 282
66 76 75 77 82 87 97 96 87 80 82 82 92 109 122 147 160 200 241 232 235 243 248 263 275 283 288 289 286 278 279 280 282 280 280 284 284 285 290 283 286 287 286
63 66 67 70 74 74 85 87 86 87 95 107 121 127 159 137 154 242 244 237 262 260 264 278 288 289 284 281 282 291 281 280 285 288 291 282 278 290 294 289 283 280 279
68 71 68 67 86 82 88 104 115 121 113 119 123 135 97 338 271 272 307 301 296 307 307 289 282 280 278 278 277 261 268 268 278 287 243 275 295 318 292 286 285 302 287